Theta_e
343 344 344 344 344 344 343 344 345 346 346 345 345 346 345 345 345 345 343 346 347 347 348 348 349 349 348 347 349 350 350 348 348 348 347 345 348 349 347 343 348 349 346
345 344 345 344 344 343 344 345 345 346 347 348 348 347 346 346 347 347 348 347 347 346 346 347 347 348 348 347 348 349 349 349 349 349 348 348 348 349 347 345 349 347 344
346 346 345 345 344 345 345 345 345 344 347 348 348 347 346 345 346 347 349 348 348 348 347 347 347 348 348 348 349 349 348 348 349 349 349 349 348 347 345 347 345 343 341
347 347 347 347 347 347 347 347 347 346 346 346 346 347 345 345 345 346 347 347 347 348 348 348 347 348 348 349 349 349 348 348 350 350 350 350 350 349 348 345 339 339 337
347 349 349 349 348 349 350 350 350 350 348 348 347 343 340 337 338 339 345 345 346 346 348 348 348 348 348 348 349 349 349 348 349 349 349 349 349 347 348 343 339 337 332
348 349 349 351 351 351 351 350 351 351 350 347 345 344 342 341 339 337 339 341 339 344 345 345 348 348 349 349 348 348 349 348 349 349 350 349 348 348 348 345 340 332 332
350 350 351 351 346 348 350 350 351 350 350 349 347 347 345 344 342 342 343 342 337 341 343 346 347 349 349 348 349 348 348 349 349 348 349 349 349 349 347 344 342 338 337
351 352 351 346 340 344 345 346 344 345 344 344 345 345 345 346 345 343 342 341 342 344 345 346 348 347 348 348 349 348 349 349 350 350 349 349 349 349 348 347 344 340 337
340 342 341 342 340 341 336 332 329 326 322 321 320 321 321 323 324 324 323 325 331 335 340 344 347 347 347 350 347 348 348 349 348 349 350 349 348 349 348 346 341 337 330
332 332 332 331 330 324 321 320 319 318 319 319 318 318 318 318 319 319 320 319 319 322 325 334 342 345 347 347 347 345 348 347 347 348 348 349 347 347 346 344 341 338 328
325 324 322 323 320 318 318 317 318 318 318 317 318 318 318 316 316 316 314 315 317 320 323 327 335 341 343 346 346 345 347 346 345 344 341 340 340 341 339 340 340 339 332
320 318 318 317 316 316 318 317 317 317 316 316 316 317 317 317 317 318 318 316 315 316 320 324 327 334 343 345 348 347 346 345 343 337 337 334 334 334 328 323 326 332 327
317 316 316 317 317 317 318 318 316 315 314 315 314 314 315 316 317 317 318 318 316 315 318 321 323 325 335 344 347 350 345 342 341 331 327 323 325 322 320 320 320 319 321
317 316 316 317 317 318 316 315 314 314 314 314 313 312 314 315 315 315 318 319 318 318 323 322 326 326 328 340 346 347 340 337 335 327 321 319 318 317 317 317 316 314 314
316 316 316 317 317 317 316 317 317 315 315 315 314 314 312 312 314 316 318 322 323 322 323 325 326 327 329 337 339 335 333 330 327 321 319 318 316 316 315 314 315 315 316
316 315 316 316 317 317 317 316 316 316 316 316 316 316 315 316 316 316 319 323 324 325 325 329 330 329 329 329 327 327 326 324 321 320 319 317 317 315 315 315 315 314 314
317 317 317 317 317 317 316 316 316 316 317 316 316 317 317 317 317 316 317 319 323 325 322 322 323 323 323 323 322 321 319 319 319 317 317 317 318 316 316 316 315 315 314
318 318 318 318 317 317 316 315 316 315 315 315 316 317 319 317 317 317 317 317 317 318 318 319 319 319 320 319 319 319 318 317 317 316 315 316 317 318 319 318 317 315 314
319 318 318 318 318 317 316 315 315 314 315 315 314 318 318 318 318 317 316 316 316 317 317 317 317 317 317 317 317 316 316 316 316 316 315 314 315 316 317 318 316 315 314
319 318 318 318 317 317 316 315 315 314 316 315 315 312 316 317 317 316 316 316 317 316 316 316 316 316 316 315 315 315 314 313 314 314 313 314 314 314 313 312 312 312 313
319 318 318 318 316 317 316 315 316 315 315 314 314 315 311 313 313 315 316 316 316 316 316 316 316 316 315 315 314 313 313 313 314 315 315 315 314 311 311 313 313 313 312
321 321 319 318 317 318 317 317 317 318 317 315 314 314 316 313 312 314 314 314 316 315 314 313 314 313 313 313 313 313 314 315 315 315 313 314 314 314 314 313 313 313 311
325 324 321 320 320 320 320 318 319 320 319 318 315 314 313 315 315 312 312 315 314 314 314 315 313 312 312 312 313 313 311 311 312 314 313 314 314 314 313 313 313 312 311
327 326 324 324 322 322 322 322 321 321 320 319 319 318 314 313 312 312 312 312 312 312 312 312 311 311 311 312 313 313 314 314 314 314 315 314 313 312 312 313 313 311 310
329 327 326 326 324 324 324 323 322 321 321 321 320 319 318 314 313 312 310 311 311 312 313 312 311 311 312 311 313 313 312 312 312 313 313 313 313 313 312 312 311 310 309
331 329 328 328 327 327 326 326 323 322 322 322 323 323 322 317 313 312 312 309 310 311 312 312 312 310 310 311 311 312 312 311 311 311 310 312 312 312 311 310 309 308 307
Wind_Speed
36 35 35 35 34 34 30 28 26 24 21 20 19 18 18 19 20 21 21 23 24 26 24 22 23 21 19 18 16 13 13 14 8 10 11 11 11 11 10 9 10 9 9
35 36 34 33 33 34 32 31 29 26 23 20 21 22 20 21 22 23 25 25 24 24 26 25 27 24 23 21 20 20 19 19 17 13 15 14 12 12 12 11 11 11 11
36 34 34 33 30 36 34 31 29 30 26 24 23 24 23 22 21 21 23 25 26 26 28 27 27 28 27 25 23 21 21 21 19 18 16 12 10 12 11 11 12 12 12
29 30 30 33 33 32 30 27 26 25 28 30 30 29 25 24 23 23 23 24 25 24 26 31 30 31 30 28 28 28 25 23 20 19 18 15 12 10 14 18 14 14 14
29 27 30 28 28 25 23 20 20 23 25 27 27 27 30 26 26 23 22 21 24 26 25 28 31 32 32 31 30 30 28 25 23 20 14 12 12 12 17 18 16 17 16
29 28 25 18 14 15 18 15 16 17 21 25 27 26 25 28 25 28 24 26 27 28 29 29 29 32 34 35 33 31 31 28 26 21 18 15 19 22 21 19 17 12 6
26 24 19 16 7 5 10 13 12 12 13 18 23 25 27 26 27 28 29 28 27 32 30 27 28 30 34 35 33 31 32 33 32 30 24 26 22 26 25 21 24 24 11
20 19 20 19 18 12 9 7 6 4 6 10 14 17 24 29 29 29 28 27 31 29 30 31 31 32 30 35 31 30 31 31 33 34 33 32 30 27 24 28 28 22 14
22 21 23 25 22 16 11 7 3 2 5 8 11 16 20 27 30 33 32 34 36 37 34 33 34 35 34 35 27 30 31 33 29 29 31 31 31 28 23 26 25 23 6
28 28 24 22 19 15 11 8 5 4 6 11 14 17 19 24 27 27 26 29 31 32 31 31 34 35 35 33 32 30 26 32 32 30 30 29 26 21 20 25 27 24 14
31 29 26 23 19 16 15 12 10 10 11 15 20 21 24 26 27 24 22 24 26 25 25 27 29 32 35 32 32 33 31 28 28 25 22 16 11 12 16 20 19 27 23
32 31 29 25 22 19 17 15 16 15 17 19 23 26 28 30 31 30 28 24 27 30 28 24 27 26 25 25 26 28 30 26 14 14 14 16 16 14 14 14 17 27 21
29 29 27 25 22 19 18 16 16 16 15 18 18 20 25 31 33 34 33 31 24 27 33 34 30 26 23 25 22 16 17 24 19 23 21 19 19 21 23 22 21 21 32
27 26 26 25 21 17 17 14 16 16 17 17 17 19 29 33 30 32 35 34 24 22 25 28 28 28 27 24 20 16 16 23 26 28 28 29 30 30 31 31 31 29 28
28 26 25 24 21 19 18 17 18 16 14 14 19 24 24 26 29 27 24 30 20 15 14 18 19 18 18 17 14 15 19 25 30 33 34 31 31 29 30 31 32 32 25
29 27 26 24 19 17 17 15 15 14 13 15 16 20 27 25 22 21 22 18 11 6 5 9 13 17 19 21 24 26 27 30 30 32 31 32 31 32 30 27 28 30 26
30 28 24 21 19 17 14 13 13 12 14 16 19 20 21 23 24 21 19 25 15 13 22 20 13 15 18 21 23 25 26 27 31 30 32 30 31 27 28 27 24 21 19
25 24 23 20 17 15 13 9 8 10 13 18 21 20 20 22 27 25 26 30 29 31 28 26 24 20 19 23 25 29 30 31 30 31 29 28 26 25 22 22 22 18 21
25 23 21 19 16 13 11 8 4 5 9 13 17 20 24 22 25 28 29 27 24 25 28 31 31 28 26 26 28 31 32 33 33 34 34 33 26 24 24 19 17 21 20
24 23 21 19 17 15 12 9 5 1 5 7 8 13 19 23 27 26 24 25 27 25 25 28 29 34 37 32 35 38 34 31 33 32 28 27 27 23 18 19 17 15 12
24 22 21 21 20 18 14 10 5 3 3 5 4 6 9 13 16 17 18 19 17 25 30 31 31 32 35 33 32 32 33 31 27 25 20 20 20 18 18 17 15 17 20
25 25 24 23 21 18 16 14 11 8 5 4 3 3 1 3 5 7 9 12 15 18 20 20 22 23 23 24 24 23 20 17 14 14 15 15 15 15 17 16 16 17 19
27 26 25 23 20 19 18 17 14 11 8 6 4 3 2 2 3 2 2 5 5 6 7 9 11 10 9 9 10 11 13 14 14 14 13 12 12 12 14 15 16 18 19
29 27 26 24 23 21 19 17 15 13 11 10 9 8 8 6 6 6 6 5 5 5 5 4 5 7 7 9 9 10 11 12 12 11 12 11 12 13 13 15 18 20 19
30 27 25 23 22 21 18 18 17 16 15 16 15 14 13 13 12 11 10 9 9 7 6 4 4 6 6 7 9 12 11 12 10 9 9 11 12 15 16 19 21 20 18
27 24 23 23 22 21 21 20 20 20 20 20 20 20 19 17 16 15 14 13 12 11 10 9 7 6 7 8 8 10 11 10 8 5 7 11 15 17 21 22 21 19 17
Wind_Direction
217 221 226 231 236 237 241 244 244 248 249 251 257 262 265 269 268 277 273 274 277 269 264 265 268 268 268 266 262 252 247 232 236 269 268 276 268 244 242 244 227 201 204
216 217 221 230 235 237 238 244 245 248 250 253 258 262 268 274 277 275 278 276 275 268 262 267 271 267 268 270 257 252 255 251 245 252 268 271 265 247 241 232 212 193 193
216 216 220 224 237 240 238 242 247 248 251 252 255 258 261 267 270 269 273 276 277 272 266 262 267 266 266 268 263 263 264 262 255 250 257 265 258 243 215 203 193 184 179
205 212 211 220 225 237 239 241 247 252 250 252 255 252 254 257 261 265 265 268 269 272 270 266 269 265 265 265 264 265 267 265 258 252 258 259 257 245 226 198 184 182 173
212 211 223 227 233 237 244 246 250 250 253 253 245 256 268 274 265 266 271 271 272 271 271 271 273 273 269 268 265 266 263 261 259 250 247 248 240 224 208 204 195 185 181
207 217 219 219 240 255 254 240 241 246 243 248 255 276 273 273 273 278 277 274 278 274 269 270 274 276 274 271 269 267 263 258 252 239 240 234 242 243 233 211 188 162 187
202 210 194 202 191 221 214 219 222 232 248 254 263 274 282 287 282 283 279 276 272 278 270 265 269 268 274 272 268 265 261 258 257 253 240 241 243 254 239 204 200 195 189
180 176 169 178 159 153 159 169 186 227 266 278 282 285 286 287 285 283 280 273 268 269 268 267 263 266 262 264 264 264 262 259 253 248 249 254 258 261 254 237 218 194 188
155 147 147 153 154 144 155 156 172 274 289 300 307 303 297 288 287 285 284 279 274 270 270 270 266 263 262 258 254 261 264 262 258 253 250 251 255 259 253 227 193 172 148
141 135 133 130 126 137 130 118 93 40 3 351 347 342 335 327 319 309 299 285 281 275 269 259 257 259 258 257 257 255 248 258 257 247 246 244 246 251 246 229 213 178 154
133 125 125 120 129 129 120 106 83 52 25 9 358 355 351 348 338 327 301 281 273 271 263 256 250 256 254 255 249 250 247 259 257 253 240 242 229 218 210 218 219 208 170
128 126 122 130 129 123 107 86 65 47 31 14 4 356 353 349 343 337 330 302 272 261 260 258 254 245 255 251 253 250 248 244 249 220 202 175 165 165 180 168 183 191 179
127 124 123 118 113 104 92 76 61 46 28 13 0 344 334 340 338 334 328 319 289 259 255 256 258 253 244 247 244 247 233 223 207 177 148 144 151 146 142 138 134 107 119
128 128 126 118 107 96 89 83 70 51 36 16 356 340 342 335 330 332 329 323 300 267 261 253 251 247 235 243 227 226 211 199 181 152 138 135 131 127 121 122 111 107 101
139 132 124 117 114 107 94 78 65 53 39 11 3 355 342 329 333 341 335 328 303 273 266 263 226 215 205 212 203 181 171 158 147 141 134 130 124 120 118 118 116 116 112
139 139 135 129 121 108 93 83 69 60 46 33 16 4 352 353 349 355 16 359 358 326 227 203 175 166 159 150 143 140 144 143 139 138 134 134 131 130 131 130 128 126 135
148 145 139 134 126 119 112 101 93 75 53 32 19 8 6 10 18 21 34 52 68 90 65 60 64 112 120 122 128 128 123 130 133 130 131 134 134 135 139 146 148 151 150
155 152 146 141 141 138 136 128 91 58 33 17 30 22 22 33 36 40 48 52 48 57 63 65 64 67 91 106 112 114 117 120 122 124 125 132 136 143 152 161 165 165 143
161 158 153 156 156 152 158 158 128 56 32 17 23 40 41 45 53 54 54 53 51 56 68 69 70 70 76 87 99 104 109 112 121 126 131 135 143 147 154 168 165 157 150
170 167 166 167 169 175 186 193 202 354 3 358 11 27 42 46 48 48 50 58 65 63 68 79 85 94 98 92 100 110 113 119 127 134 141 146 152 157 166 153 151 154 160
177 176 181 186 190 197 200 206 226 254 278 307 338 34 43 49 49 53 59 69 78 85 90 94 96 99 105 113 117 121 125 130 137 150 160 169 167 166 162 166 163 154 151
188 188 192 199 205 209 216 224 233 241 253 283 310 21 45 39 54 64 74 77 90 96 99 102 105 108 114 123 131 140 148 158 163 168 167 161 164 170 168 169 164 162 157
199 198 202 205 211 218 225 228 232 236 240 251 272 281 290 288 253 224 133 122 119 116 117 122 124 131 142 152 161 161 161 160 157 155 158 158 160 160 166 169 168 161 160
205 208 207 210 212 215 222 229 231 237 242 246 248 252 254 254 250 231 210 192 168 158 151 141 138 139 139 149 153 153 153 149 154 163 170 164 168 167 175 176 170 167 166
206 205 208 214 215 216 223 230 234 239 244 251 255 256 253 248 248 242 231 219 210 206 202 190 182 191 187 173 162 163 153 155 151 149 165 181 180 181 178 176 172 167 165
211 214 214 216 217 220 223 229 236 243 248 253 258 261 257 251 249 247 242 237 233 230 227 216 192 165 156 159 165 168 171 172 170 178 194 190 186 182 182 175 170 166 166